GW0890 Weather Reports


time (UTC)temp
F
wind
direction
speed
knots
gust
knots
rain 1hr
in
rain 24hr
in
rain mn
in
humidity
%
barometer
mb
20260504001510 57 101 1.7 4.3 0.00 0.00 0.00 51 1013.8
20260504000006 60 41 0.0 0.0 0.00 0.00 0.00 41 1013.9
20260503234515 61 41 0.0 1.7 0.00 0.00 0.00 39 1013.7
20260503233004 61 41 2.6 5.2 0.00 0.00 0.00 38 1013.8
20260503231503 61 44 2.6 6.1 0.00 0.00 0.00 38 1014.1
20260503230103 62 44 3.5 6.1 0.00 0.00 0.00 36 1014.2
20260503224558 62 14 4.3 7.8 0.00 0.00 0.00 35 1014.1
20260503223100 63 17 2.6 7.0 0.00 0.00 0.00 36 1014.4
20260503221557 63 67 5.2 10.4 0.00 0.00 0.00 35 1014.4
20260503220054 63 35 4.3 8.7 0.00 0.00 0.00 35 1014.4
20260503214552 64 17 6.1 11.3 0.00 0.00 0.00 34 1014.6
20260503213104 64 38 3.5 8.7 0.00 0.00 0.00 35 1014.6
20260503211548 64 9 6.1 16.5 0.00 0.00 0.00 35 1014.7
20260503210056 63 40 5.2 8.7 0.00 0.00 0.00 34 1014.9
20260503204550 63 80 6.1 10.4 0.00 0.00 0.00 34 1014.9
20260503203043 62 74 6.1 13.0 0.00 0.00 0.00 36 1015.2
20260503203040 62 71 6.1 13.0 0.00 0.00 0.00 36 1015.2
20260503201539 63 90 5.2 11.3 0.00 0.00 0.00 34 1015.5
20260503200037 63 360 7.0 11.3 0.00 0.00 0.00 33 1015.7
20260503194535 62 114 5.2 12.2 0.00 0.00 0.00 33 1016.3
20260503193035 63 135 3.5 7.8 0.00 0.00 0.00 33 1016.5
20260503191526 62 94 2.6 7.8 0.00 0.00 0.00 35 1016.7
20260503190027 62 62 6.1 11.3 0.00 0.00 0.00 37 1017.1
20260503184533 61 200 7.0 11.3 0.00 0.00 0.00 36 1017.1
20260503183019 61 65 5.2 12.2 0.00 0.00 0.00 38 1017.6
20260503181518 62 111 2.6 6.1 0.00 0.00 0.00 37 1017.8
20260503180022 60 182 3.5 7.8 0.00 0.00 0.00 38 1018.0
20260503174511 60 355 5.2 8.7 0.00 0.00 0.00 40 1018.3
20260503173014 60 65 1.7 7.8 0.00 0.00 0.00 39 1018.3
20260503171509 59 146 0.9 9.6 0.00 0.00 0.00 39 1018.6
20260503081501 32 145 0.0 0.0 0.00 0.00 0.00 91 1018.2
20260503071557 33 151 0.0 0.0 0.00 0.00 0.00 89 1017.7
20260503070104 34 151 0.0 0.0 0.00 0.00 0.00 89 1017.7
20260503054540 37 153 0.0 0.9 0.00 0.00 0.00 86 1017.7
20260503053038 37 153 0.0 0.0 0.00 0.00 0.00 85 1017.7
20260503051533 38 153 0.0 0.0 0.00 0.00 0.00 84 1017.7
20260503050031 39 153 0.0 1.7 0.00 0.00 0.00 83 1017.7
20260503044527 40 153 0.0 0.0 0.00 0.00 0.00 83 1017.6
20260503043023 40 153 0.0 0.0 0.00 0.00 0.00 83 1017.5
20260503041522 40 153 0.0 0.9 0.00 0.00 0.00 83 1017.4
20260503040020 40 153 0.0 0.0 0.00 0.00 0.00 82 1017.4
20260503034534 40 153 0.0 0.0 0.00 0.00 0.00 81 1017.4
20260503033016 41 153 0.0 0.0 0.00 0.00 0.00 80 1017.2
20260503031518 41 153 0.0 0.0 0.00 0.00 0.00 80 1017.2
20260503030015 41 153 0.0 2.6 0.00 0.00 0.00 78 1017.2
20260503024514 42 153 0.0 2.6 0.00 0.00 0.00 75 1017.2
20260503023010 43 153 0.0 3.5 0.00 0.00 0.00 73 1017.1
20260503021509 45 152 0.0 0.0 0.00 0.00 0.00 68 1016.8
20260503020007 46 150 0.0 0.0 0.00 0.00 0.00 64 1016.6
20260503014512 47 150 1.7 4.3 0.00 0.00 0.00 57 1016.4
20260503013004 48 149 0.0 1.7 0.00 0.00 0.00 56 1016.1
20260503011504 49 149 1.7 5.2 0.00 0.00 0.00 53 1015.9
20260503010003 49 152 0.9 4.3 0.00 0.00 0.00 56 1015.8
20260503004503 50 155 1.7 5.2 0.00 0.00 0.00 54 1015.7
20260503003100 51 153 0.0 1.7 0.00 0.00 0.00 52 1015.3